Ogallala, NE

1:18 AM MST on February 08, 2016 (GMT -0700)
Searle

Weather History for KOGA - January, 2014

Change the Weather History Date:

Tuesday, January 7, 2014

  Actual Average Record
Temperature  
Mean Temperature 29 °F -  
Max Temperature 45 °F 30 °F 64 °F (1965)
Min Temperature 13 °F 6 °F -20 °F (1968)
Degree Days  
Heating Degree Days 36    
Moisture  
Dew Point 18 °F    
Average Humidity 67    
Maximum Humidity 78    
Minimum Humidity 43    
Precipitation  
Precipitation 0.03 in - - ()
Sea Level Pressure  
Sea Level Pressure 30.00 in    
Wind  
Wind Speed 10 mph (West)    
Max Wind Speed 17 mph    
Max Gust Speed 22 mph    
Visibility 10 miles    
Events      
Averages and records for this station are not official NWS values.
T = Trace of Precipitation, MM = Missing Value Source: NWS Daily Summary

Daily Weather History Graph

Daily Weather History Graph

Search for Another Location

Airport or City:

Trip Planner

Search our weather history database for the weather conditions in past years. The results will help you decide how hot, cold, wet, or windy it might be!

Date:

Astronomy

Jan. 07, 2014 Rise Set
Actual Time 7:12 AM MST 4:34 PM MST
Civil Twilight 6:41 AM MST 5:05 PM MST
Nautical Twilight 6:07 AM MST 5:39 PM MST
Astronomical Twilight 5:33 AM MST 6:13 PM MST
Moon 10:58 AM MST (1/7) No Moon Set
Length of Visible Light 10h 24m
Length of Day
9h 22m
Waxing Crescent, 46% of the Moon is Illuminated
Jan 7
Waxing Crescent
Jan 7
First Quarter
Jan 15
Full
Jan 23
Last Quarter
Jan 30
New

Hourly Weather History & Observations

Time (MST) Temp. Windchill Dew Point Humidity Pressure Visibility Wind Dir Wind Speed Gust Speed Precip Events Conditions
12:15 AM 19.4 °F 5.5 °F 10.8 °F 69% 30.00 in 10.0 mi West 15.0 mph - N/A   Clear
12:35 AM 18.1 °F 3.4 °F 10.4 °F 72% 30.00 in 10.0 mi West 16.1 mph 21.9 mph N/A   Clear
12:55 AM 17.4 °F 3.5 °F 10.0 °F 73% 30.00 in 10.0 mi West 13.8 mph - N/A   Clear
1:15 AM 17.2 °F 2.7 °F 9.9 °F 73% 30.00 in 10.0 mi West 15.0 mph - N/A   Clear
1:35 AM 17.6 °F 2.2 °F 9.5 °F 71% 30.00 in 10.0 mi West 17.3 mph - N/A   Clear
1:55 AM 17.2 °F 3.3 °F 9.3 °F 71% 30.00 in 10.0 mi WSW 13.8 mph - N/A   Clear
2:15 AM 16.5 °F 1.8 °F 9.1 °F 73% 30.00 in 10.0 mi WSW 15.0 mph - N/A   Clear
2:35 AM 16.7 °F 3.8 °F 9.1 °F 72% 30.00 in 10.0 mi WSW 11.5 mph - N/A   Clear
2:55 AM 16.2 °F 5.5 °F 8.6 °F 72% 30.00 in 10.0 mi West 8.1 mph - N/A   Clear
3:15 AM 16.3 °F 4.9 °F 8.6 °F 72% 29.98 in 10.0 mi West 9.2 mph - N/A   Clear
3:35 AM 15.8 °F 2.7 °F 8.4 °F 73% 29.98 in 10.0 mi West 11.5 mph - N/A   Clear
3:55 AM 16.5 °F 3.6 °F 8.6 °F 71% 29.98 in 10.0 mi West 11.5 mph - N/A   Clear
4:15 AM 15.4 °F 3.8 °F 8.4 °F 74% 29.98 in 10.0 mi West 9.2 mph - N/A   Clear
4:35 AM 15.1 °F 0.5 °F 8.6 °F 76% 29.99 in 10.0 mi West 13.8 mph - N/A   Clear
4:55 AM 14.9 °F 5.0 °F 8.2 °F 75% 30.00 in 10.0 mi WNW 6.9 mph - N/A   Clear
5:15 AM 14.4 °F 0.2 °F 8.1 °F 76% 30.00 in 10.0 mi West 12.7 mph - N/A   Clear
5:35 AM 13.5 °F 2.2 °F 7.7 °F 78% 30.00 in 10.0 mi West 8.1 mph - N/A   Clear
5:55 AM 13.6 °F 0.7 °F 7.7 °F 77% 30.00 in 10.0 mi West 10.4 mph - N/A   Clear
6:15 AM 13.8 °F -1.1 °F 8.1 °F 78% 30.00 in 10.0 mi WSW 13.8 mph - N/A   Clear
6:35 AM 14.4 °F 4.3 °F 8.2 °F 77% 30.01 in 10.0 mi West 6.9 mph - N/A   Clear
6:55 AM 14.2 °F 1.4 °F 8.2 °F 77% 30.01 in 10.0 mi West 10.4 mph - N/A   Clear
7:15 AM 14.0 °F 2.0 °F 8.4 °F 78% 30.01 in 10.0 mi West 9.2 mph - N/A   Clear
7:35 AM 15.6 °F 2.5 °F 9.3 °F 76% 30.02 in 10.0 mi West 11.5 mph - N/A   Clear
7:55 AM 17.2 °F 4.5 °F 10.4 °F 75% 30.01 in 10.0 mi West 11.5 mph - N/A   Clear
8:15 AM 19.0 °F 5.6 °F 11.7 °F 73% 30.02 in 10.0 mi WSW 13.8 mph - N/A   Clear
8:35 AM 21.0 °F 6.6 °F 12.9 °F 71% 30.02 in 10.0 mi WSW 17.3 mph - N/A   Clear
8:55 AM 23.0 °F 10.6 °F 14.4 °F 70% 30.03 in 10.0 mi WSW 13.8 mph - N/A   Clear
9:15 AM 24.8 °F 12.9 °F 15.6 °F 68% 30.03 in 10.0 mi West 13.8 mph - N/A   Clear
9:35 AM 26.6 °F 16.8 °F 17.1 °F 67% 30.04 in 10.0 mi West 10.4 mph - N/A   Clear
9:55 AM 28.2 °F 19.5 °F 18.3 °F 66% 30.03 in 10.0 mi West 9.2 mph - N/A   Scattered Clouds
10:15 AM 28.9 °F 25.2 °F 17.8 °F 63% 30.04 in 10.0 mi West 3.5 mph - N/A   Scattered Clouds
10:35 AM 30.9 °F 26.2 °F 18.9 °F 61% 30.03 in 10.0 mi WSW 4.6 mph - N/A   Mostly Cloudy
10:55 AM 32.2 °F - 19.6 °F 60% 30.02 in 10.0 mi Calm Calm - N/A   Overcast
11:15 AM 35.2 °F 32.4 °F 20.7 °F 55% 30.00 in 10.0 mi West 3.5 mph - N/A   Overcast
11:35 AM 37.8 °F - 22.6 °F 54% 29.99 in 10.0 mi Calm Calm - N/A   Scattered Clouds
11:55 AM 37.0 °F 31.0 °F 24.4 °F 60% 29.99 in 10.0 mi West 8.1 mph - N/A   Mostly Cloudy
12:15 PM 40.5 °F 36.5 °F 25.0 °F 54% 29.97 in 10.0 mi WSW 5.8 mph - N/A   Mostly Cloudy
12:35 PM 42.3 °F 40.5 °F 25.2 °F 51% 29.96 in 10.0 mi West 3.5 mph - N/A   Scattered Clouds
12:55 PM 44.6 °F 41.4 °F 24.3 °F 45% 29.95 in 10.0 mi West 5.8 mph - N/A   Scattered Clouds
1:15 PM 45.5 °F 42.5 °F 24.4 °F 44% 29.95 in 10.0 mi WNW 5.8 mph - N/A   Mostly Cloudy
1:35 PM 45.5 °F 44.2 °F 24.8 °F 44% 29.95 in 10.0 mi WNW 3.5 mph - N/A   Overcast
1:55 PM 45.9 °F - 24.6 °F 43% 29.95 in 10.0 mi Calm Calm - N/A   Overcast
2:15 PM 43.9 °F - 27.1 °F 52% 29.95 in 10.0 mi Calm Calm - N/A   Overcast
2:35 PM 42.8 °F 41.1 °F 27.5 °F 55% 29.95 in 10.0 mi ESE 3.5 mph - N/A   Overcast
2:55 PM - - - N/A% - - North - - N/A   Unknown
3:15 PM - - - N/A% - - North - - N/A   Unknown
3:35 PM 42.1 °F - 27.3 °F 56% 29.98 in 10.0 mi Calm Calm - 0.03 in   Overcast
3:55 PM 40.3 °F - 28.9 °F 64% 29.97 in 10.0 mi Calm Calm - 0.03 in   Overcast
4:15 PM 38.3 °F - 28.2 °F 67% 29.97 in 10.0 mi Calm Calm - N/A   Overcast
4:35 PM 35.8 °F 33.0 °F 27.5 °F 72% 29.97 in 10.0 mi NW 3.5 mph - N/A   Mostly Cloudy
4:55 PM 35.6 °F - 27.5 °F 72% 29.97 in 10.0 mi Calm Calm - N/A   Overcast
5:15 PM 35.1 °F - 27.3 °F 73% 29.98 in 10.0 mi Calm Calm - N/A   Overcast
5:35 PM 35.1 °F - 27.3 °F 73% 29.99 in 10.0 mi Calm Calm - N/A   Overcast
5:55 PM 35.2 °F - 27.3 °F 73% 29.99 in 10.0 mi Calm Calm - N/A   Overcast
6:15 PM 34.7 °F - 27.3 °F 74% 29.99 in 10.0 mi Calm Calm - N/A   Overcast
6:35 PM 34.0 °F - 27.5 °F 77% 30.00 in 10.0 mi Calm Calm - N/A   Mostly Cloudy
6:55 PM 35.8 °F 28.3 °F 27.3 °F 71% 30.01 in 10.0 mi North 10.4 mph - N/A   Overcast
7:15 PM 36.0 °F 28.5 °F 25.3 °F 65% 30.01 in 10.0 mi ENE 10.4 mph - N/A   Overcast
7:35 PM 36.1 °F 28.2 °F 24.3 °F 62% 30.02 in 10.0 mi ENE 11.5 mph - N/A   Overcast
7:55 PM 36.0 °F 28.5 °F 23.4 °F 60% 30.03 in 10.0 mi East 10.4 mph - N/A   Overcast
8:15 PM 35.6 °F 28.6 °F 23.5 °F 62% 30.03 in 10.0 mi East 9.2 mph - N/A   Overcast
8:35 PM 34.9 °F 28.3 °F 24.3 °F 65% 30.04 in 10.0 mi East 8.1 mph - N/A   Overcast
8:55 PM 34.7 °F 27.5 °F 23.9 °F 65% 30.04 in 10.0 mi East 9.2 mph - N/A   Overcast
9:15 PM 34.7 °F 26.4 °F 23.7 °F 64% 30.04 in 10.0 mi East 11.5 mph 16.1 mph N/A   Overcast
9:35 PM 34.2 °F 26.8 °F 23.5 °F 65% 30.05 in 10.0 mi East 9.2 mph - N/A   Overcast
9:55 PM 34.0 °F 26.0 °F 23.5 °F 66% 30.05 in 10.0 mi East 10.4 mph - N/A   Overcast
10:15 PM 33.6 °F 26.2 °F 23.7 °F 67% 30.05 in 10.0 mi East 9.2 mph - N/A   Overcast
10:35 PM 33.3 °F 26.4 °F 23.9 °F 69% 30.06 in 10.0 mi East 8.1 mph - N/A   Overcast
10:55 PM 32.9 °F 27.5 °F 24.1 °F 70% 30.06 in 10.0 mi ENE 5.8 mph - N/A   Overcast
11:15 PM 32.9 °F 26.7 °F 24.3 °F 71% 30.06 in 10.0 mi ENE 6.9 mph - N/A   Overcast
11:35 PM 32.4 °F 26.0 °F 24.1 °F 72% 30.06 in 10.0 mi East 6.9 mph - N/A   Overcast
11:55 PM 32.2 °F 25.0 °F 24.1 °F 72% 30.06 in 10.0 mi East 8.1 mph - N/A   Overcast